Date String (YYYY-MM-DD hh:mm:ss) UTC,Instrument flags,absolute air pressure of the measurement (hPa),sample flow rate (lpm),inlet stack bypass flow (lpm),air temperature of the measurement (°C),ambient temperature measured by the external sensor (°C),aerosol sample conditioner tube jacket temperature (°C),OPC LED temperature (°C),internal box temperature (°C),relative humidity of the measurement (%),span deviation,mass concentration of particles derived from Lorenz-Mie calculation of OPC scattering (μg/m³),mass concentration of particles derived from Lorenz-Mie calculation of OPC scattering (μg/m³),mass concentration of particles derived from Lorenz-Mie calculation of OPC scattering (μg/m³)
DateTimeUTC,F1_M11,P_M11,Q1_M11,Q2_M11,T1_M11,T2_M11,T3_M11,T4_M11,T5_M11,U1_M11,ZSPAN_M11,X2_M11,X0_M11,X1_M11
2023-08-08 06:00:00,SystemResetWarning,0833.7,5.00,000.00,029.6,028.3,000.0,038.1,031.2,27.6,-001.2,0006.34,0015.28,0005.27
2023-08-08 06:01:00,SystemResetWarning,0833.7,5.00,000.00,029.6,028.4,000.0,038.2,031.2,27.7,-001.3,0006.33,0014.74,0005.26
2023-08-08 06:02:00,SystemResetWarning,0833.7,5.00,000.00,029.6,028.4,000.0,038.2,031.3,28.5,-001.4,0006.36,0014.49,0005.26
2023-08-08 06:03:00,SystemResetWarning,0833.7,5.00,000.00,029.6,028.4,000.0,038.2,031.3,28.9,-001.4,0006.37,0014.13,0005.27
2023-08-08 06:04:00,SystemResetWarning,0833.7,5.00,000.00,029.7,028.4,000.0,038.2,031.3,29.0,-001.0,0006.36,0013.74,0005.26
2023-08-08 06:05:00,SystemResetWarning,0833.7,5.00,000.00,029.7,028.5,000.0,038.2,031.3,29.1,-001.0,0006.40,0013.92,0005.25
2023-08-08 06:06:00,SystemResetWarning,0833.7,5.00,000.00,029.7,028.5,000.0,038.3,031.3,29.1,-001.0,0006.34,0013.49,0005.24
2023-08-08 06:07:00,SystemResetWarning,0833.7,5.00,000.00,029.7,028.5,000.0,038.3,031.3,29.1,-000.6,0006.30,0012.91,0005.22
2023-08-08 06:08:00,SystemResetWarning,0833.8,5.00,000.00,029.7,028.5,000.0,038.3,031.3,28.9,-000.5,0006.30,0012.05,0005.20
2023-08-08 06:09:00,SystemResetWarning,0833.8,5.00,000.00,029.7,028.5,000.0,038.3,031.4,28.4,-000.8,0006.31,0011.86,0005.19
2023-08-08 06:10:00,SystemResetWarning,0833.8,5.00,000.00,029.8,028.5,000.0,038.3,031.4,28.3,-000.6,0006.30,0011.78,0005.17
2023-08-08 06:11:00,SystemResetWarning,0833.8,4.99,000.00,029.8,027.1,000.0,038.2,031.2,28.2,-000.5,0006.29,0011.53,0005.15
2023-08-08 06:12:00,SystemResetWarning,0833.8,5.01,000.00,029.7,025.4,000.0,038.1,031.0,28.3,-000.1,0006.26,0011.42,0005.13
2023-08-08 06:13:00,SystemResetWarning,0833.7,5.00,000.00,029.6,025.0,000.0,038.0,030.6,28.5,-000.2,0006.20,0011.54,0005.11
2023-08-08 06:14:00,SystemResetWarning,0833.8,5.02,000.00,029.4,025.2,000.0,038.0,030.5,29.0,-000.2,0006.19,0012.21,0005.11
2023-08-08 06:15:00,SystemResetWarning,0833.8,5.00,000.00,029.3,025.6,000.0,038.1,030.6,29.1,-000.2,0006.15,0012.21,0005.09
2023-08-08 06:16:00,SystemResetWarning,0833.8,5.00,000.00,029.3,026.1,000.0,038.1,030.6,29.3,-000.2,0006.13,0012.79,0005.09
2023-08-08 06:17:00,SystemResetWarning,0833.8,5.00,000.00,029.3,026.5,000.0,038.1,030.7,29.3,0000.1,0006.14,0012.97,0005.10
2023-08-08 06:18:00,SystemResetWarning,0833.8,5.00,000.00,029.3,026.8,000.0,038.0,030.8,29.4,0000.2,0006.15,0013.13,0005.10
2023-08-08 06:19:00,SystemResetWarning,0833.9,4.99,000.00,029.3,027.1,000.0,038.0,030.8,29.4,-000.1,0006.10,0013.10,0005.10
2023-08-08 06:20:00,SystemResetWarning,0833.9,5.00,000.00,029.3,027.3,000.0,038.0,030.9,29.4,-000.1,0006.03,0013.57,0005.09
2023-08-08 06:21:00,SystemResetWarning,0833.8,5.00,000.00,029.3,027.5,000.0,038.0,030.9,29.3,0000.2,0005.96,0013.53,0005.07
2023-08-08 06:22:00,SystemResetWarning,0833.9,5.00,000.00,029.3,027.7,000.0,038.0,031.0,29.6,0000.6,0005.89,0013.56,0005.06
2023-08-08 06:23:00,SystemResetWarning,0833.9,5.01,000.00,029.4,027.8,000.0,038.0,031.0,30.3,0000.6,0005.81,0014.33,0005.02
2023-08-08 06:24:00,SystemResetWarning,0833.8,5.00,000.00,029.4,028.0,000.0,038.0,031.0,30.3,0000.8,0005.82,0015.07,0004.99
2023-08-08 06:25:00,SystemResetWarning,0833.8,5.01,000.00,029.4,028.0,000.0,038.0,031.1,30.3,0001.1,0005.81,0014.32,0004.97
2023-08-08 06:26:00,SystemResetWarning,0833.8,5.01,000.00,029.4,028.1,000.0,038.0,031.1,30.6,0001.3,0005.80,0014.57,0004.96
2023-08-08 06:27:00,SystemResetWarning,0833.8,5.00,000.00,029.5,028.2,000.0,038.1,031.1,30.7,0001.8,0005.77,0013.73,0004.97
2023-08-08 06:28:00,SystemResetWarning,0833.8,4.99,000.00,029.5,028.2,000.0,038.1,031.1,30.5,0001.8,0005.76,0013.57,0004.97
2023-08-08 06:29:00,SystemResetWarning,0833.8,4.99,000.00,029.5,028.3,000.0,038.1,031.2,30.5,0001.6,0005.77,0013.88,0004.97
2023-08-08 06:30:00,SystemResetWarning,0833.8,5.00,000.00,029.5,028.3,000.0,038.1,031.2,30.5,0001.9,0005.78,0013.99,0004.97
2023-08-08 06:31:00,SystemResetWarning,0833.8,5.00,000.00,029.6,028.4,000.0,038.1,031.2,30.5,0002.3,0005.81,0013.74,0004.98
2023-08-08 06:32:00,SystemResetWarning,0833.8,5.00,000.00,029.6,028.4,000.0,038.1,031.2,30.3,0001.9,0005.86,0013.84,0004.99
2023-08-08 06:33:00,SystemResetWarning,0833.8,5.00,000.00,029.6,028.4,000.0,038.2,031.2,30.1,0001.9,0005.89,0013.56,0004.99
2023-08-08 06:34:00,SystemResetWarning,0833.8,5.00,000.00,029.6,028.4,000.0,038.2,031.3,30.0,0002.1,0005.95,0012.90,0005.02
2023-08-08 06:35:00,SystemResetWarning,0833.8,5.01,000.00,029.6,028.5,000.0,038.2,031.3,30.0,0000.7,0005.94,0013.33,0005.04
2023-08-08 06:36:00,SystemResetWarning,0833.8,5.00,000.00,029.7,028.5,000.0,038.2,031.3,30.2,0001.3,0005.91,0013.70,0005.05
2023-08-08 06:37:00,SystemResetWarning,0833.8,5.00,000.00,029.7,028.5,000.0,038.2,031.3,30.1,0001.1,0005.91,0013.43,0005.05
2023-08-08 06:38:00,SystemResetWarning,0833.8,5.00,000.00,029.7,028.5,000.0,038.3,031.3,29.6,0000.9,0005.94,0014.28,0005.05
2023-08-08 06:39:00,SystemResetWarning,0833.8,5.00,000.00,029.7,028.5,000.0,038.3,031.4,29.5,0000.6,0005.93,0014.88,0005.05
2023-08-08 06:40:00,SystemResetWarning,0833.8,5.00,000.00,029.7,028.6,000.0,038.3,031.4,29.7,0000.2,0005.94,0014.67,0005.06
2023-08-08 06:41:00,SystemResetWarning,0833.8,5.00,000.00,029.8,028.6,000.0,038.3,031.4,29.7,0000.1,0005.96,0014.68,0005.05
2023-08-08 06:42:00,SystemResetWarning,0833.8,5.00,000.00,029.8,028.6,000.0,038.3,031.4,29.6,0000.4,0005.95,0014.40,0005.04
2023-08-08 06:43:00,SystemResetWarning,0833.8,5.00,000.00,029.8,028.6,000.0,038.3,031.4,29.1,-000.1,0005.92,0014.04,0005.04
2023-08-08 06:44:00,SystemResetWarning,0833.8,5.00,000.00,029.8,028.6,000.0,038.4,031.4,28.2,0000.0,0005.93,0015.05,0005.06
2023-08-08 06:45:00,SystemResetWarning,0833.8,4.99,000.00,029.8,028.6,000.0,038.4,031.4,27.9,0000.4,0005.93,0015.08,0005.08
2023-08-08 06:46:00,SystemResetWarning,0833.8,4.99,000.00,029.8,028.4,000.0,038.4,031.4,27.4,0000.2,0006.00,0014.26,0005.10
2023-08-08 06:47:00,SystemResetWarning,0833.8,5.00,000.00,029.8,026.6,000.0,038.3,031.2,27.1,0000.0,0006.05,0013.85,0005.12
2023-08-08 06:48:00,SystemResetWarning,0833.8,5.00,000.00,029.7,025.3,000.0,038.1,030.9,27.0,0000.3,0006.09,0015.06,0005.14
2023-08-08 06:49:00,SystemResetWarning,0833.7,5.01,000.00,029.6,025.1,000.0,038.1,030.6,26.9,0000.3,0006.14,0014.42,0005.15
2023-08-08 06:50:00,SystemResetWarning,0833.8,5.01,000.00,029.4,025.4,000.0,038.1,030.5,26.9,-000.1,0006.17,0014.15,0005.18
2023-08-08 06:51:00,SystemResetWarning,0833.7,4.99,000.00,029.4,025.8,000.0,038.1,030.6,27.4,0000.4,0006.19,0014.76,0005.19
2023-08-08 06:52:00,SystemResetWarning,0833.7,5.00,000.00,029.4,026.2,000.0,038.1,030.7,27.6,0000.6,0006.24,0014.84,0005.22
2023-08-08 06:53:00,SystemResetWarning,0833.8,4.99,000.00,029.3,026.6,000.0,038.1,030.8,27.5,-000.1,0006.25,0015.00,0005.25
2023-08-08 06:54:00,SystemResetWarning,0833.8,5.00,000.00,029.3,026.9,000.0,038.1,030.8,26.9,-000.5,0006.31,0015.82,0005.27
2023-08-08 06:55:00,SystemResetWarning,0833.8,5.00,000.00,029.3,027.1,000.0,038.1,030.9,26.4,-000.2,0006.32,0015.29,0005.27
2023-08-08 06:56:00,SystemResetWarning,0833.8,5.00,000.00,029.3,027.3,000.0,038.1,030.9,26.3,-000.7,0006.33,0015.04,0005.26
2023-08-08 06:57:00,SystemResetWarning,0833.8,4.99,000.00,029.4,027.5,000.0,038.1,030.9,26.2,-000.6,0006.30,0015.47,0005.25
2023-08-08 06:58:00,SystemResetWarning,0833.8,5.00,000.00,029.4,027.7,000.0,038.1,031.0,26.1,-000.8,0006.25,0015.72,0005.26
2023-08-08 06:59:00,SystemResetWarning,0833.8,5.00,000.00,029.4,027.8,000.0,038.1,031.0,26.0,-000.5,0006.23,0015.20,0005.26
